星链-1417 (STARLINK-1417 )

导读 | 豆包AI

STARLINK-1417是美国SpaceX公司星链(Starlink)星座中的卫星,于美国东部时间2020年6月4日发射入轨,属于星链一期低轨互联网星座组网卫星。星链旨在搭建全球覆盖的卫星互联网通信系统,为全球用户提供宽带接入服务。该卫星运行在近地轨道,承担信号转发和通信组网功能,是星链大规模星座建设中较早发射的组网卫星之一,助力星链逐步实现全球通信覆盖目标。

基本信息
目录编号:
45693
目录名称:
STARLINK-1417
国际标识:
2020-035AN
轨道中心:
EARTH
卫星名称:
星链-1417
卫星全名:
星链-1417 (STARLINK-1417 )
卫星状态:
在轨 (已飞行2181 天)
发射日期:
2020-06-04 UTC
国别 :
美国 (US)
星等 :
--
轨道信息
数据来源 国际轨道数据
星历时间: 2026-05-24T10:21:30+0800
1天前
查看轨道信息
半长轴: 6896.162km
偏心率: 0.000618
轨道倾角: 53.051°
近地点辐角 88.966°
升交点赤经 71.559°
平近点角 271.204°
近地点: 513.763km
远地点: 522.287km
周期: 94.988分钟
每日圈数: 15.159734
详细信息
固有亮度:
5
最大亮度:
2.5
卫星平台:
Starlink V1.0
覆盖范围:
全球
运营商:
太空探索技术公司
运营商所在国:
美国
制造商(研发单位):
太空探索技术公司
制造商所在国:
美国
使用方式:
暂无
卫星简介
星链(Starlink)计划是由太空探索技术公司(SpaceX)提出的一个巨型低轨卫星互联网星座项目,计划在2019年至2024年间在太空搭建由约1.2万颗卫星组成的“星链”网络,其中1584颗将部署在地球上空550千米处的近地轨道,并从2020年开始工作。该卫星仍在工作。
2D轨道图
3D轨道图
轨道高度分析图
轨道倾角分析图
轨道综合分析图
查看轨道综合分析图